TimeCST,TemperatureF,Dew PointF,Humidity,Sea Level PressureIn,VisibilityMPH,Wind Direction,Wind SpeedMPH,Gust SpeedMPH,PrecipitationIn,Events,Conditions,WindDirDegrees,DateUTC
12:15 AM,21.7,19.2,90,30.33,10.0,Calm,Calm,-,N/A,,Mostly Cloudy,0,2013-02-16 06:15:00
12:35 AM,22.5,20.5,92,30.33,10.0,Calm,Calm,-,N/A,,Scattered Clouds,0,2013-02-16 06:35:00
12:55 AM,21.2,19.0,91,30.32,10.0,Calm,Calm,-,N/A,,Clear,0,2013-02-16 06:55:00
1:15 AM,18.5,17.6,96,30.32,10.0,Calm,Calm,-,N/A,,Clear,0,2013-02-16 07:15:00
1:35 AM,17.2,16.3,96,30.31,7.0,Calm,Calm,-,N/A,,Clear,0,2013-02-16 07:35:00
1:55 AM,16.2,15.4,97,30.31,7.0,Calm,Calm,-,N/A,,Clear,0,2013-02-16 07:55:00
2:15 AM,15.8,14.9,96,30.31,7.0,Calm,Calm,-,N/A,,Clear,0,2013-02-16 08:15:00
2:35 AM,15.4,14.4,95,30.30,10.0,Calm,Calm,-,N/A,,Clear,0,2013-02-16 08:35:00
2:55 AM,14.7,13.5,95,30.30,10.0,Calm,Calm,-,N/A,,Clear,0,2013-02-16 08:55:00
3:15 AM,14.9,13.8,95,30.29,10.0,Calm,Calm,-,N/A,,Clear,0,2013-02-16 09:15:00
3:35 AM,14.4,12.7,93,30.29,10.0,Calm,Calm,-,N/A,,Clear,0,2013-02-16 09:35:00
3:55 AM,13.1,12.0,95,30.29,10.0,Calm,Calm,-,N/A,,Clear,0,2013-02-16 09:55:00
4:15 AM,13.8,12.6,95,30.28,10.0,Calm,Calm,-,N/A,,Clear,0,2013-02-16 10:15:00
4:35 AM,13.5,12.0,94,30.28,10.0,Calm,Calm,-,N/A,,Clear,0,2013-02-16 10:35:00
5:15 AM,14.0,12.7,95,30.27,10.0,Calm,Calm,-,N/A,,Clear,0,2013-02-16 11:15:00
5:35 AM,11.3,9.5,92,30.27,10.0,Calm,Calm,-,N/A,,Clear,0,2013-02-16 11:35:00
5:55 AM,11.7,10.2,94,30.27,7.0,Calm,Calm,-,N/A,,Clear,0,2013-02-16 11:55:00
6:15 AM,12.4,11.1,95,30.26,7.0,Calm,Calm,-,N/A,,Clear,0,2013-02-16 12:15:00
6:35 AM,12.9,11.3,93,30.26,10.0,Calm,Calm,-,N/A,,Clear,0,2013-02-16 12:35:00
6:55 AM,13.1,11.8,95,30.26,10.0,Calm,Calm,-,N/A,,Scattered Clouds,0,2013-02-16 12:55:00
7:15 AM,13.1,11.3,93,30.26,10.0,Calm,Calm,-,N/A,,Scattered Clouds,0,2013-02-16 13:15:00
7:35 AM,13.1,11.7,94,30.25,10.0,Calm,Calm,-,N/A,,Scattered Clouds,0,2013-02-16 13:35:00
7:55 AM,13.8,12.2,93,30.24,10.0,Calm,Calm,-,N/A,,Mostly Cloudy,0,2013-02-16 13:55:00
8:15 AM,13.8,12.2,93,30.23,10.0,Calm,Calm,-,N/A,,Overcast,0,2013-02-16 14:15:00
8:35 AM,14.7,13.5,95,30.22,10.0,Calm,Calm,-,N/A,,Scattered Clouds,0,2013-02-16 14:35:00
8:55 AM,16.2,14.9,95,30.22,10.0,Calm,Calm,-,N/A,,Scattered Clouds,0,2013-02-16 14:55:00
9:15 AM,17.4,16.5,96,30.21,10.0,Calm,Calm,-,N/A,,Clear,0,2013-02-16 15:15:00
9:35 AM,19.4,18.5,96,30.21,10.0,Calm,Calm,-,N/A,,Clear,0,2013-02-16 15:35:00
12:15 PM,29.1,22.1,75,30.14,10.0,SW,10.4,-,N/A,,Overcast,220,2013-02-16 18:15:00
12:35 PM,29.3,22.6,76,30.13,10.0,SSW,11.5,-,N/A,,Overcast,200,2013-02-16 18:35:00
12:55 PM,29.7,21.4,71,30.12,10.0,SSW,11.5,-,N/A,,Overcast,210,2013-02-16 18:55:00
1:15 PM,30.2,22.3,72,30.12,10.0,SSW,12.7,-,N/A,,Overcast,210,2013-02-16 19:15:00
1:35 PM,30.6,21.4,69,30.11,10.0,SW,12.7,-,N/A,,Overcast,220,2013-02-16 19:35:00
1:55 PM,30.6,21.7,70,30.10,10.0,SW,10.4,-,N/A,,Overcast,220,2013-02-16 19:55:00
2:15 PM,30.7,22.3,71,30.09,10.0,SSW,5.8,-,N/A,,Overcast,200,2013-02-16 20:15:00
2:35 PM,30.4,21.6,70,30.08,10.0,Calm,Calm,-,N/A,,Overcast,0,2013-02-16 20:35:00
2:55 PM,30.6,22.1,71,30.08,10.0,South,4.6,-,N/A,,Overcast,180,2013-02-16 20:55:00
3:15 PM,30.9,22.5,71,30.08,10.0,South,9.2,-,N/A,,Overcast,180,2013-02-16 21:15:00
3:35 PM,31.6,22.3,68,30.08,10.0,SSW,10.4,-,N/A,,Overcast,200,2013-02-16 21:35:00
3:55 PM,31.8,23.7,72,30.09,10.0,South,5.8,-,N/A,,Overcast,190,2013-02-16 21:55:00
4:15 PM,32.0,24.1,73,30.09,10.0,Calm,Calm,-,N/A,,Overcast,0,2013-02-16 22:15:00
4:35 PM,32.0,24.6,74,30.08,10.0,Calm,Calm,-,N/A,,Overcast,0,2013-02-16 22:35:00
4:55 PM,32.0,23.2,70,30.08,10.0,South,9.2,-,N/A,,Overcast,190,2013-02-16 22:55:00
5:15 PM,32.0,23.9,72,30.07,10.0,South,10.4,-,N/A,,Overcast,170,2013-02-16 23:15:00
5:35 PM,32.0,23.2,70,30.06,10.0,Calm,Calm,-,N/A,,Overcast,0,2013-02-16 23:35:00
5:55 PM,31.8,24.1,73,30.06,10.0,Calm,Calm,-,N/A,,Overcast,0,2013-02-16 23:55:00
6:15 PM,31.8,23.4,71,30.05,10.0,Calm,Calm,-,N/A,,Overcast,0,2013-02-17 00:15:00
6:35 PM,31.8,23.5,71,30.05,10.0,SSE,6.9,-,N/A,,Overcast,160,2013-02-17 00:35:00
6:55 PM,31.8,22.5,68,30.05,10.0,SSE,6.9,-,N/A,,Overcast,160,2013-02-17 00:55:00
7:15 PM,32.0,22.3,67,30.05,10.0,Calm,Calm,-,N/A,,Overcast,0,2013-02-17 01:15:00
7:35 PM,31.8,22.6,69,30.05,10.0,Calm,Calm,-,N/A,,Overcast,0,2013-02-17 01:35:00
7:55 PM,31.5,24.1,74,30.04,10.0,SE,11.5,-,N/A,,Overcast,140,2013-02-17 01:55:00
8:15 PM,31.1,24.3,76,30.04,10.0,SE,10.4,-,N/A,,Overcast,140,2013-02-17 02:15:00
8:35 PM,31.1,23.9,75,30.04,10.0,Calm,Calm,-,N/A,,Overcast,0,2013-02-17 02:35:00
8:55 PM,31.1,23.9,75,30.04,10.0,Calm,Calm,-,N/A,,Overcast,0,2013-02-17 02:55:00
9:15 PM,31.1,23.7,74,30.04,10.0,Calm,Calm,-,N/A,,Overcast,0,2013-02-17 03:15:00
9:35 PM,31.1,23.5,74,30.04,10.0,Calm,Calm,-,N/A,,Overcast,0,2013-02-17 03:35:00
10:15 PM,31.1,23.4,73,30.03,10.0,Calm,Calm,-,N/A,,Overcast,0,2013-02-17 04:15:00
10:35 PM,31.1,23.4,73,30.02,10.0,Calm,Calm,-,N/A,,Overcast,0,2013-02-17 04:35:00
10:55 PM,30.9,23.0,72,30.02,10.0,Calm,Calm,-,N/A,,Overcast,0,2013-02-17 04:55:00
11:15 PM,30.6,23.0,74,30.01,10.0,SSE,8.1,-,N/A,,Overcast,160,2013-02-17 05:15:00
11:35 PM,29.8,22.8,75,30.01,10.0,Calm,Calm,-,N/A,,Scattered Clouds,0,2013-02-17 05:35:00
11:55 PM,28.9,22.5,77,30.01,10.0,Calm,Calm,-,N/A,,Clear,0,2013-02-17 05:55:00